Regional Weather Roundup
Issued by NWS Goodland, KS

Home | Current Version | Previous Version | Text Only | Print | Product List | Glossary On
Versions: 1 2 3 4 5 6 7 8 9 10 11 12 13 14 15 16 17 18 19 20 21 22 23 24 25 26 27 28 29 30 31 32 33 34 35 36 37 38 39 40 41 42 43 44 45 46 47 48 49 50
000
ASUS43 KGLD 061508
RWRGLD

GOODLAND FORECAST AREA HOURLY WEATHER ROUNDUP
NATIONAL WEATHER SERVICE GOODLAND KS
800 AM MST FRI MAR 06 2015

...OFFICIAL OBSERVATIONS...

CITY           SKY/WX    TMP DP  RH WIND       PRES   REMARKS
GOODLAND KS    SUNNY     39  21  48 SW10      30.28R
HILL CITY KS   SUNNY     36  21  54 W7        30.29R
IMPERIAL NEB     N/A     37  20  50 W12       30.26R
MCCOOK NEB     SUNNY     32  22  66 SW10      30.27R
AKRON CO       SUNNY     31  20  63 W13       30.28R
BURLINGTON CO  SUNNY     35  24  64 W7        30.29R
LIMON CO       SUNNY     19  10  68 N6        30.31R
$$

...UNOFFICIAL OBSERVATIONS...

CITY           SKY/WX    TMP DP  RH WIND       PRES   REMARKS
COLBY KS       SUNNY     37  28  70 W9        30.29S
GOVE KS          N/A     33  32  96 MISG        N/A
NORTON KS      SUNNY     37  19  48 SW10      30.27R
SHARON SPRINGS   N/A     36  30  78 CALM        N/A
YUMA CO          N/A     34  23  64 W13         N/A
$$



USA.gov is the U.S. government's official web portal to all federal, state and local government web resources and services.